RSQA2 Weather Reports


Display with metric or nautical units.
time (UTC)temp
F
wind
direction
speed
MPH
gust
MPH
rain 1hr
in
rain 24hr
in
rain mn
in
humidity
%
barometer
mb
20260504235816 55 140 0.0 3.0 0.00 0.00 0.00 54 1006.9
20260504234316 54 126 0.0 4.0 0.00 0.00 0.00 54 1007.3
20260504232820 54 144 1.0 7.0 0.00 0.00 0.00 53 1007.6
20260504231320 55 124 0.0 4.0 0.00 0.00 0.00 56 1007.9
20260504224324 55 113 2.0 5.0 0.00 0.00 0.00 53 1008.5
20260504222824 55 107 3.0 5.0 0.00 0.00 0.00 55 1008.9
20260504221328 55 138 2.0 6.0 0.00 0.00 0.00 54 1009.2
20260504212816 54 141 2.0 5.0 0.00 0.00 0.00 58 1009.7
20260504205819 53 108 3.0 5.0 0.00 0.00 0.00 57 1010.1
20260504204324 54 107 2.0 8.0 0.00 0.00 0.00 57 1010.2
20260504202823 53 86 2.0 8.0 0.00 0.00 0.00 58 1010.4
20260504195810 52 111 1.0 7.0 0.00 0.00 0.00 60 1011.1
20260504191322 49 105 3.0 6.0 0.00 0.00 0.00 63 1011.8
20260504184328 48 121 2.0 5.0 0.00 0.00 0.00 62 1012.0
20260504181317 47 124 1.0 4.0 0.00 0.00 0.00 61 1012.6
20260504175818 46 109 2.0 3.0 0.00 0.00 0.00 61 1012.7
20260504174318 45 132 0.0 3.0 0.00 0.00 0.00 61 1012.9
20260504172822 45 132 0.0 3.0 0.00 0.00 0.00 61 1013.0
20260504141324 35 271 0.0 0.0 0.00 0.00 0.00 82 1013.5
20260504045822 51 271 0.0 0.0 0.00 0.00 0.00 53 1014.7
20260504042811 52 271 1.0 2.0 0.00 0.00 0.00 47 1014.8
20260504041316 52 271 0.0 4.0 0.00 0.00 0.00 48 1014.9
20260504035814 53 271 0.0 3.0 0.00 0.00 0.00 46 1015.0
20260504032822 53 271 1.0 3.0 0.00 0.00 0.00 46 1015.1
20260504031328 52 271 1.0 4.0 0.00 0.00 0.00 46 1015.3
20260504021322 52 217 0.0 1.0 0.00 0.00 0.00 45 1015.5
20260504015825 52 217 0.0 3.0 0.00 0.00 0.00 43 1015.5
20260504014326 52 217 1.0 3.0 0.00 0.00 0.00 45 1015.6
20260504011312 52 217 1.0 4.0 0.00 0.00 0.00 45 1015.8
20260504005813 53 184 2.0 5.0 0.00 0.00 0.00 43 1015.9
20260504004313 54 190 1.0 10.0 0.00 0.00 0.00 42 1016.0
20260504002816 54 187 2.0 7.0 0.00 0.00 0.00 43 1016.0
20260504001318 54 192 1.0 8.0 0.00 0.00 0.00 41 1016.2